Regional Weather Roundup
Issued by NWS Midland/Odessa, TX

Skip options and go directly to product.
Home | Oldest Version | Previous Version | Current Version | All | Text Only | Save Text | Print | Product List | Glossary On

Skip product version selection by date and time.   
426
ASUS44 KMAF 252010
RWRMAF
MIDLAND AREA WEATHER ROUNDUP
NATIONAL WEATHER SERVICE MIDLAND TX
300 PM CDT FRI JUL 25 2014

...IN SOUTHWEST TEXAS AND SOUTHEAST NEW MEXICO...

CITY           SKY/WX    TMP DP  RH WIND       PRES   REMARKS
ALPINE         SUNNY     90  48  23 CALM      30.19F
ANDREWS        FAIR      96  49  20 S7        30.06F
ARTESIA        SUNNY     99  48  18 S15       30.04F
BIG SPRING     SUNNY     98  54  23 SW9       30.05F
CARLSBAD       MOSUNNY   99  45  15 MISG      30.02F
DRYDEN           N/A     99  60  27 SE9G18    30.00F
FORT STOCKTON  MOSUNNY   95  52  23 SE9G24    30.04F
GUAD PASS      MOSUNNY   88  49  25 NE6       30.23F
HOBBS          MOSUNNY   95  50  21 SE5       30.08F
MARFA          MOSUNNY   90  48  24 S12G17    30.19F
MIDLAND AIRPK  SUNNY     96  52  22 S8        30.05F
MIDLAND INTL   SUNNY     95  54  25 VRB5      30.04F
ODESSA         SUNNY     95  50  21 S6        30.05F
PECOS          SUNNY     99  44  15 CALM      30.00F
PRESIDIO       FAIR      96  55  24 NE6       30.02F
SEMINOLE       SUNNY     98  46  17 S12       30.07F
SNYDER         SUNNY     95  55  25 S9        30.02F
WINK           SUNNY     98  46  17 VRB6      30.01F
$$
...OTHER STATIONS IN TEXAS...

CITY           SKY/WX    TMP DP  RH WIND       PRES   REMARKS
ABILENE        SUNNY     95  63  34 S9        30.01F
AMARILLO       SUNNY     97  57  26 S22       30.01F
AUSTIN         MOSUNNY   94  68  42 S8        29.97F
BROWNSVILLE    MOSUNNY   95  70  44 S18G29    29.97F HX 101
CORPUS CHRISTI PTSUNNY   93  73  52 SE18G28   29.96F HX 102
DALLAS FTW     MOSUNNY   98  65  33 VRB3      29.95F HX 101
DEL RIO        SUNNY     97  65  34 VRB7G16   29.94F
EL PASO        MOSUNNY   97  47  18 VRB3      30.08F
HOUSTON INT    MOSUNNY   92  68  45 VRB3      29.98F
LUBBOCK        MOSUNNY   98  54  22 S12G21    30.04F
SAN ANGELO     SUNNY     96  60  30 SW6       30.00F
SAN ANTONIO    MOSUNNY   92  68  45 S9        29.99F
WACO           SUNNY     96  68  39 S13G18    29.97F HX 101
WICHITA FALLS  NOT AVBL
$$
...OTHER LOCATIONS IN NEW MEXICO...

CITY           SKY/WX    TMP DP  RH WIND       PRES   REMARKS
ALAMAGORDO     SUNNY     95  45  17 CALM      30.10F
ALBUQUERQUE    MOSUNNY   92  44  19 VRB3      30.17F
CANNON AFB     SUNNY     96  53  22 SW10      30.08F
CLOVIS         NOT AVBL
HOLLOMAN AFB   MOSUNNY   97  44  16 W9        30.08F
ROSWELL        SUNNY    100  48  17 SE13G21   30.03F
RUIDOSO        MOSUNNY   84  41  21 MISG      30.33S
SANTA FE       SUNNY     88  46  23 MISG      30.23F
TRUTH OR CONSE SUNNY     96  42  15 VRB5      30.14F
TUCUMCARI      SUNNY    102  40  12 S9G23     30.00F
$$

USA.gov is the U.S. government's official web portal to all federal, state and local government web resources and services.